Hourly Data Report for October 03, 2013

All times are specified in Local Standard Time (LST). Add 1 hour to adjust for Daylight Saving Time where and when it is observed.

PANGNIRTUNG
NUNAVUT

66°08'36.300" N
65°42'40.500" W
22.60 m
2403049
71826
WXP

Download Data

Hourly Data (October 2013)
Hourly Data Report for October 3, 2013
Temp Definition
°C
Dew Point Temp Definition
°C
Rel Hum Definition
%
Wind Dir Definition
10's deg

Wind Spd Definition
km/h
Visibility Definition
km
Stn Press Definition
kPa
Hmdx Definition


Wind Chill Definition


Weather Definition


TIME
00:00 -2.5 -6.1 76 8 7   100.35   -5 LegendNANA
01:00 -2.6 -6.1 77 8 7   100.35   -5 LegendNANA
02:00 -2.9 -6.4 77 9 6   100.36   -5 LegendNANA
03:00 -3.0 -6.3 78 8 2   100.38   -4 LegendNANA
04:00 -2.2 -6.4 73 7 4   100.41   -4 LegendNANA
05:00 -1.9 -6.3 72 6 9   100.46   -5 LegendNANA
06:00 -1.8 -6.1 72 5 11   100.49   -6 LegendNANA
07:00 -1.7 -6.5 70 5 15   100.54   -7 LegendNANA
08:00 -1.1 -6.2 68 6 9   100.60   -4 LegendNANA
09:00 -0.7 -6.2 66 5 9   100.63   -4 LegendNANA
10:00 -0.6 -6.1 66 3 15   100.67   -5 LegendNANA
11:00 0.0 -6.3 63 3 15   100.68   -4 LegendNANA
12:00 0.5 -6.5 59 3 15   100.73     LegendNANA
13:00 0.8 -5.8 61 3 11   100.76     LegendNANA
14:00 1.0 -6.0 59 4 15   100.82     LegendNANA
15:00 0.8 -5.6 62 4 15   100.90     LegendNANA
16:00 0.8 -6.2 59 5 11   100.94     LegendNANA
17:00 0.5 -6.0 62 6 13   101.00     LegendNANA
18:00 0.3 -6.1 62 6 13   101.06     LegendNANA
19:00 0.2 -6.3 62 6 11   101.10     LegendNANA
20:00 -0.1 -6.3 63 6 15   101.15   -5 LegendNANA
21:00 -0.2 -6.3 63 6 11   101.19   -4 LegendNANA
22:00 -0.4 -6.6 63 6 11   101.19   -4 LegendNANA
23:00 -0.4 -6.6 63 7 11   101.22   -4 LegendNANA

Notes on Data Quality.

Legend

  • E = Estimated
  • M = Missing
  • NA = Not Available
  • ‡ = Partner data that is not subject to review by the National Climate Archives
Date modified: